Weather in Chutyr

Russia / Udmurt Republic     57°23′41″N   53°14′07″E
В апреле 2022 года жителям России запретили посещать сайт meteo.paraplan.net по решению Генеральной прокуратуры. Аудитория сайта уменьшилась в 10 раз. Владельцы сайта не видят смысла в поддержке погодного сервера в таких условиях. Сайт будет закрыт в октябре.
temp.,
°C
wind,
m/s
gust,
m/s
humid.,
%
clouds,
%
prec.,
mm/h
press.,
hPa
HPBL,
m
30 september, fri
fri3001:00+1ese51293100 1.0 1022497
04:00+1ese41095100 2.8 1024417
07:00+1ese4995100 2.4 1025323
10:00+1ese4994100 3.0 1027335
13:00+5se478292 0.0 1027502
16:00+7se378198 0.0 1028737
19:00+6sse3887100 0.0 1028352
22:00+3sse389390 0.0 1029259
1 october, sat
sat101:00+1se389633 0.0 1029215
04:00+1se3896100 0.0 1029194
07:00+1se2896100 0.0 1028235
10:00+5sse588196 0.0 1027395
13:00+9sse4771100 0.0 1026690
16:00+10sse477161 0.0 1025758
19:00+6sse3890100 0.0 1025178
22:00+5sse31091100 0.0 1023214
2 october, sun
sun201:00+5sse31091100 0.0 1022231
04:00+4sse41186100 0.0 1021261
07:00+4sse41286100 0.0 1020293
10:00+8sse51172100 0.0 1019336
13:00+13s6116358 0.0 1017568
16:00+14sse7146275 0.0 1015745
19:00+13s71565100 0.1 1015775
22:00+12s61470100 0.3 1014696
3 october, mon
mon301:00+11s61381100 0.0 1014584
04:00+11s51291100 0.4 1014455
07:00+11s51294100 0.0 1015428
10:00+11s5128295 0.1 1016394
13:00+14s5107798 0.1 1017516
16:00+13s51280100 0.1 1018486
19:00+11sse5138317 0.0 1020341
22:00+10s4148091 0.0 1021311
4 october, tue
tue401:00+10s51476100 0.0 1022368
04:00+9s41474100 0.0 1023355
07:00+9s5146580 0.0 1025351
10:00+12s5145187 0.0 1026489
13:00+16s6123911 0.0 1026956
16:00+15s6114454 0.0 10261065
19:00+12s51452100 0.0 1028578
22:00+10s41255100 0.0 1028436